This is the latest recevied weather packets stored in our database for station/object KJ5EHN. If no packets are shown the sender has not sent any weather packets the latest 1 day(s).
| Time | Temp. | Humidity | Pressure | Rain* | Wind** | Luminosity | Snow |
|---|---|---|---|---|---|---|---|
| 1778054158 | 12.78° C | 77% | 1009.8 hPa | 0 mm | 1.34 m/s, 104° | - | - |
| 1778053855 | 12.78° C | 77% | 1009.8 hPa | 0 mm | 0.89 m/s, 102° | - | - |
| 1778053552 | 13.33° C | 77% | 1009.7 hPa | 0 mm | 0.89 m/s, 178° | - | - |
| 1778053249 | 12.78° C | 77% | 1009.5 hPa | 0 mm | 0.89 m/s, 135° | - | - |
| 1778052947 | 12.78° C | 77% | 1009.5 hPa | 0 mm | 1.79 m/s, 127° | - | - |
| 1778052644 | 13.33° C | 77% | 1009.6 hPa | 0 mm | 0.89 m/s, 65° | - | - |
| 1778052341 | 12.78° C | 77% | 1009.8 hPa | 0 mm | 0.89 m/s, 143° | - | - |
| 1778052039 | 13.33° C | 77% | 1009.8 hPa | 0 mm | 0.89 m/s, 146° | - | - |
| 1778051736 | 13.33° C | 77% | 1009.5 hPa | 0 mm | 0.45 m/s, 144° | - | - |
| 1778051434 | 13.33° C | 77% | 1009.8 hPa | 0 mm | 0.89 m/s, 330° | - | - |
| 1778051131 | 13.33° C | 77% | 1009.8 hPa | 0 mm | 0.89 m/s, 307° | - | - |
| 1778050828 | 13.33° C | 77% | 1009.9 hPa | 0 mm | 0.45 m/s, 277° | - | - |
| 1778050526 | 13.33° C | 77% | 1009.8 hPa | 0 mm | 0.89 m/s, 141° | - | - |
| 1778050222 | 13.33° C | 77% | 1009.8 hPa | 0 mm | 0.45 m/s, 108° | - | - |
| 1778049919 | 13.33° C | 78% | 1010.2 hPa | 0 mm | 0.89 m/s, 92° | - | - |
| 1778049614 | 13.33° C | 77% | 1010 hPa | 0 mm | 0.45 m/s, 103° | - | - |
| 1778049313 | 13.33° C | 77% | 1010.1 hPa | 0 mm | 0.45 m/s, 174° | - | - |
| 1778049010 | 13.33° C | 77% | 1010.3 hPa | 0 mm | 0.89 m/s, 94° | - | - |
| 1778048708 | 13.33° C | 77% | 1010.1 hPa | 0 mm | 0.45 m/s, 190° | - | - |
| 1778048405 | 13.33° C | 77% | 1009.9 hPa | 0 mm | 1.79 m/s, 336° | - | - |
| 1778048101 | 13.33° C | 77% | 1010 hPa | 0 mm | 0.45 m/s, 222° | - | - |
| 1778047798 | 13.33° C | 77% | 1010.1 hPa | 0 mm | 0.45 m/s, 170° | - | - |
| 1778047496 | 13.33° C | 77% | 1010 hPa | 0 mm | 0.89 m/s, 135° | - | - |
| 1778047193 | 13.33° C | 78% | 1010.2 hPa | 0 mm | 1.79 m/s, 246° | - | - |
| 1778046891 | 13.89° C | 78% | 1009.8 hPa | 0 mm | 0.89 m/s, 249° | - | - |
* Rain latest hour (hover to see other rain measurements)
** Current wind speed in m/s (hover to see current wind gust speed)